Location: Hac?musa Deresi
(39.1694°N, 32.2508°E)
Time: 14:45:57
(UTC+00:00)

OAO 2 Rocket - Pass Details

Date: 22 April 2026
Orbit: 668 x 734 km, 35.0° (Epoch: 11 May)

Event Time Altitude Azimuth Distance (km) Brightness Sun altitude
Rises 18:49:12 0° 267° (W) 3,114 7.3 -23.5°
Reaches altitude 10° 18:51:42 10° 262° (W) 2,184 6.4 -23.9°
Enters shadow 18:56:06 47° 209° (SSW) 920 3.7 -24.5°
